Weather History for Ponca City, OK

Change the Weather History Date:

Sunday, June 23, 2013

  Actual Average Record
Temperature  
Mean Temperature 85 °F -  
Max Temperature 93 °F 91 °F 101 °F (1954)
Min Temperature 77 °F 65 °F 54 °F (1955)
Cooling Degree Days 20    
Growing Degree Days 35 (Base 50)    
Moisture  
Dew Point 66 °F    
Average Humidity 55    
Maximum Humidity 71    
Minimum Humidity 37    
Precipitation  
Precipitation 0.01 in - - ()
Sea Level Pressure  
Sea Level Pressure 29.82 in    
Wind  
Wind Speed 17 mph (SSE)    
Max Wind Speed 23 mph    
Max Gust Speed 32 mph    
Visibility 10 miles    
Events Thunderstorm    
Averages and records for this station are not official NWS values.
T = Trace of Precipitation, MM = Missing Value Source: NWS Daily Summary

Daily Weather History Graph

Daily Weather History Graph

Search for Another Location

Airport:

Trip Planner

Search our weather history database for the weather conditions in past years. The results will help you decide how hot, cold, wet, or windy it might be!

Date:

Astronomy

Jun. 23, 2013 Rise Set
Actual Time 6:10 AM CDT 8:50 PM CDT
Civil Twilight 5:39 AM CDT 9:21 PM CDT
Nautical Twilight 5:01 AM CDT 9:59 PM CDT
Astronomical Twilight 4:18 AM CDT 10:42 PM CDT
Moon 9:06 PM CDT (6/23) 6:27 AM CDT (6/23)
Length of Visible Light 15h 41m
Length of Day
14h 40m
Full, 100% of the Moon is Illuminated
Jun 23
Full
Jun 29
Last Quarter
Jul 8
New
Jul 15
First Quarter
Jul 22
Full

Hourly Weather History & Observations

Time (CDT) Temp. Heat Index Dew Point Humidity Pressure Visibility Wind Dir Wind Speed Gust Speed Precip Events Conditions
12:53 AM 81.0 °F 83.0 °F 66.0 °F 60% 29.83 in 10.0 mi SSE 20.7 mph 32.2 mph N/A   Clear
1:53 AM 81.0 °F 83.0 °F 66.0 °F 60% 29.82 in 10.0 mi SSE 19.6 mph 28.8 mph N/A   Clear
2:53 AM 81.0 °F 83.0 °F 66.0 °F 60% 29.81 in 10.0 mi SSE 17.3 mph 29.9 mph N/A   Clear
3:53 AM 79.0 °F - 66.0 °F 64% 29.81 in 10.0 mi SSE 20.7 mph 26.5 mph N/A   Clear
4:53 AM 78.1 °F - 66.0 °F 66% 29.81 in 10.0 mi SSE 20.7 mph 25.3 mph N/A   Clear
5:53 AM 78.1 °F - 66.0 °F 66% 29.83 in 10.0 mi SSE 17.3 mph 25.3 mph N/A   Clear
6:53 AM 77.0 °F - 66.9 °F 71% 29.84 in 10.0 mi SSE 17.3 mph 21.9 mph N/A   Clear
7:53 AM 78.1 °F - 68.0 °F 71% 29.84 in 10.0 mi SSE 10.4 mph 19.6 mph N/A   Clear
8:53 AM 81.0 °F 83.8 °F 68.0 °F 65% 29.83 in 10.0 mi South 19.6 mph 27.6 mph N/A   Clear
9:53 AM 84.0 °F 87.0 °F 68.0 °F 58% 29.84 in 10.0 mi South 11.5 mph 23.0 mph N/A   Clear
10:53 AM 87.1 °F 90.6 °F 68.0 °F 53% 29.85 in 10.0 mi SSW 11.5 mph 27.6 mph N/A   Clear
11:53 AM 90.0 °F 93.6 °F 68.0 °F 48% 29.85 in 10.0 mi SSW 11.5 mph 21.9 mph N/A   Clear
12:53 PM 88.0 °F 90.7 °F 66.9 °F 49% 29.85 in 10.0 mi South 9.2 mph 19.6 mph N/A   Clear
1:53 PM 88.0 °F 90.7 °F 66.9 °F 49% 29.82 in 10.0 mi South 16.1 mph 26.5 mph 0.01 in   Clear
2:40 PM 89.6 °F 91.1 °F 64.4 °F 43% 29.85 in 10.0 mi South 11.5 mph 28.8 mph N/A Thunderstorm Thunderstorm
2:53 PM 90.0 °F 91.3 °F 64.0 °F 42% 29.81 in 10.0 mi South 16.1 mph 26.5 mph N/A   Clear
3:53 PM 93.0 °F 94.2 °F 63.0 °F 37% 29.79 in 10.0 mi SSE 19.6 mph 28.8 mph N/A   Clear
4:53 PM 93.0 °F 94.2 °F 63.0 °F 37% 29.78 in 10.0 mi South 17.3 mph 27.6 mph N/A   Clear
5:53 PM 91.0 °F 93.8 °F 66.0 °F 44% 29.77 in 10.0 mi SSE 23.0 mph 31.1 mph N/A   Clear
6:53 PM 89.1 °F 91.3 °F 66.0 °F 46% 29.78 in 10.0 mi South 17.3 mph 28.8 mph N/A   Clear
7:53 PM 87.1 °F 89.2 °F 66.0 °F 49% 29.80 in 10.0 mi South 11.5 mph 20.7 mph N/A   Clear
8:53 PM 86.0 °F 88.2 °F 66.0 °F 51% 29.82 in 10.0 mi South 15.0 mph 23.0 mph N/A   Clear
9:53 PM 82.9 °F 85.0 °F 66.0 °F 56% 29.84 in 10.0 mi SSE 15.0 mph - N/A   Clear
10:53 PM 82.0 °F 84.5 °F 66.9 °F 60% 29.86 in 10.0 mi SE 16.1 mph - N/A   Clear
11:53 PM 82.0 °F 84.5 °F 66.9 °F 60% 29.86 in 10.0 mi SSE 13.8 mph 24.2 mph N/A   Clear